Weather observations for the past three days for
Ciudad Juarez International
| Date | Time (cdt) | Wind (mph) | Vis. (mi.) | Weather | Sky Cond. | Temperature (ºF) | Relative Humidity | Wind Chill (°F) | Heat Index (°F) | Pressure | Precipitation (in) | ||||||
|---|---|---|---|---|---|---|---|---|---|---|---|---|---|---|---|---|---|
| Air | Dwpt | 6 hour | altimeter (in) | sea level (mb) | 1 hr | 3 hr | 6 hr | ||||||||||
| Max. | Min. | ||||||||||||||||
| 03 | 21:40 | SW 7 | 10.00 | A Few Clouds | FEW050 FEW100 | 87.8 | 53.6 | 31% | 86 | 30.02 | 1001.7 | ||||||
| 03 | 20:40 | SW 8 | 10.00 | A Few Clouds | FEW050 FEW100 | 89.6 | 51.8 | 27% | 87 | 29.99 | 0.0 | ||||||
| 03 | 19:41 | SW 8 | 10.00 | A Few Clouds | FEW050 FEW100 | 93.2 | 53.6 | 26% | 91 | 29.99 | 0.0 | ||||||
| 03 | 18:40 | SW 5 | 10.00 | A Few Clouds | FEW050 FEW100 | 93.2 | 53.6 | 26% | 91 | 29.98 | 1001.5 | ||||||
| 03 | 17:40 | SW 12 | 10.00 | A Few Clouds | FEW050 FEW200 | 95 | 53.6 | 25% | 93 | 29.99 | 0.0 | ||||||
| 03 | 16:40 | W 12 | 10.00 | A Few Clouds | FEW050 FEW200 | 96.8 | 53.6 | 23% | 95 | 30 | 0.0 | ||||||
| 03 | 15:40 | SW 7 | 10.00 | Partly Cloudy | FEW050 SCT200 | 95 | 53.6 | 25% | 93 | 30.03 | 1002.8 | ||||||
| 03 | 14:40 | NW 8 | 10.00 | Mostly Cloudy | FEW090 SCT130 BKN200 | 93.2 | 55.4 | 28% | 91 | 30.06 | 0.0 | ||||||
| 03 | 13:40 | W 7 | 10.00 | Mostly Cloudy | FEW090 SCT130 BKN200 | 93.2 | 55.4 | 28% | 91 | 30.09 | 0.0 | ||||||
| 03 | 12:40 | W 7 | 10.00 | Mostly Cloudy | FEW090 SCT130 BKN200 | 89.6 | 55.4 | 31% | 88 | 30.12 | 1005.6 | ||||||
| 03 | 11:40 | W 8 | 10.00 | Mostly Cloudy | FEW090 BKN130 BKN200 | 87.8 | 55.4 | 33% | 86 | 30.13 | 0.0 | ||||||
| 03 | 10:40 | SW 12 | 10.00 | Mostly Cloudy | FEW090 BKN130 BKN200 | 84.2 | 57.2 | 40% | 83 | 30.13 | 0.0 | ||||||
| 03 | 09:40 | W 5 | 10.00 | Mostly Cloudy | SCT080 BKN130 BKN200 | 82.4 | 57.2 | 42% | 82 | 30.13 | 1006.1 | ||||||
| 03 | 08:40 | W 9 | 10.00 | Mostly Cloudy | FEW080 SCT130 BKN200 | 80.6 | 55.4 | 42% | 81 | 30.12 | 0.0 | ||||||
| 03 | 06:40 | W 12 | 10.00 | Partly Cloudy | FEW090 SCT140 SCT250 | 77 | 55.4 | 47% | 79 | 30.1 | 1004.9 | ||||||
| 02 | 22:40 | W 7 | 10.00 | Clear | SKC | 89.6 | 50 | 26% | 87 | 30.06 | 0.0 | ||||||
| 02 | 21:56 | W 3 | 10.00 | Clear | SKC | 89.6 | 50 | 26% | 87 | 30.04 | 1003.3 | ||||||
| 02 | 20:40 | W 8 | 10.00 | A Few Clouds | FEW050 FEW100 | 91.4 | 50 | 24% | 88 | 30.02 | 0.0 | ||||||
| 02 | 19:40 | SW 6 | 10.00 | Partly Cloudy | SCT050 | 95 | 50 | 22% | 92 | 30.01 | 0.0 | ||||||
| 02 | 18:40 | SW 6 | 10.00 | Partly Cloudy | SCT050 | 96.8 | 48.2 | 19% | 93 | 30.02 | 1002.3 | ||||||
| 02 | 17:40 | W 9 | 10.00 | Mostly Cloudy | BKN050 | 96.8 | 48.2 | 19% | 93 | 30.03 | 0.0 | ||||||
| 02 | 16:41 | Calm | 10.00 | Mostly Cloudy | BKN050 | 98.6 | 48.2 | 18% | 95 | 30.05 | 0.0 | ||||||
| 02 | 15:40 | SW 10 | 10.00 | Partly Cloudy | SCT050 | 96.8 | 50 | 20% | 94 | 30.08 | 1004.5 | ||||||
| 02 | 14:40 | S 5 | 10.00 | A Few Clouds | FEW050 FEW150 | 95 | 51.8 | 23% | 92 | 30.11 | 0.0 | ||||||
| 02 | 13:40 | W 6 | 10.00 | A Few Clouds | FEW050 FEW130 | 91.4 | 53.6 | 28% | 89 | 30.14 | 0.0 | ||||||
| 02 | 11:40 | W 9 | 10.00 | Partly Cloudy | FEW100 SCT150 | 87.8 | 55.4 | 33% | 86 | 30.17 | 0.0 | ||||||
| 02 | 10:40 | W 15 | 10.00 | Partly Cloudy | SCT110 SCT170 | 84.2 | 55.4 | 37% | 83 | 30.17 | 0.0 | ||||||
| 02 | 09:40 | SW 13 | 10.00 | Partly Cloudy | FEW090 SCT170 | 82.4 | 55.4 | 40% | 82 | 30.17 | 1007.9 | ||||||
| 02 | 08:40 | SW 6 | 10.00 | A Few Clouds | FEW090 FEW160 | 77 | 55.4 | 47% | 79 | 30.15 | 0.0 | ||||||
| 02 | 06:40 | SW 9 | 10.00 | Partly Cloudy | FEW090 SCT250 | 75.2 | 57.2 | 54% | 78 | 30.12 | 1006.4 | ||||||
| 01 | 22:40 | W 5 | 10.00 | Clear | SKC | 86 | 50 | 29% | 84 | 30.1 | 0.0 | ||||||
| 01 | 21:40 | SW 6 | 10.00 | Clear | SKC | 87.8 | 50 | 27% | 85 | 30.07 | 1005.9 | ||||||
| 01 | 20:40 | W 5 | 10.00 | A Few Clouds | FEW080 | 89.6 | 50 | 26% | 87 | 30.05 | 0.0 | ||||||
| 01 | 19:40 | W 8 | 10.00 | Clear | SKC | 91.4 | 51.8 | 26% | 89 | 30.04 | 0.0 | ||||||
| 01 | 18:40 | NW 6 | 10.00 | Clear | SKC | 93.2 | 51.8 | 24% | 90 | 30.05 | 1003.7 | ||||||
| 01 | 17:40 | Calm | 10.00 | A Few Clouds | FEW050 | 93.2 | 50 | 23% | 90 | 30.05 | 0.0 | ||||||
| 01 | 16:40 | W 5 | 10.00 | A Few Clouds | FEW050 FEW200 | 93.2 | 51.8 | 24% | 90 | 30.06 | 0.0 | ||||||
| 01 | 15:40 | Calm | 10.00 | A Few Clouds | FEW050 FEW200 | 93.2 | 51.8 | 24% | 90 | 30.1 | 1005.9 | ||||||
| 01 | 14:40 | N 7 | 10.00 | A Few Clouds | FEW050 FEW200 | 91.4 | 51.8 | 26% | 89 | 30.12 | 0.0 | ||||||
| 01 | 13:43 | SE 3 | 10.00 | A Few Clouds | FEW090 FEW140 | 89.6 | 51.8 | 27% | 87 | 30.15 | 0.0 | ||||||
| 01 | 12:41 | NW 6 | 10.00 | A Few Clouds | FEW090 FEW140 | 87.8 | 51.8 | 29% | 85 | 30.17 | 1008.2 | ||||||
| 01 | 11:40 | N 8 | 10.00 | Mostly Cloudy | FEW090 BKN140 | 84.2 | 53.6 | 35% | 83 | 30.17 | 0.0 | ||||||
| 01 | 10:40 | NW 8 | 10.00 | Mostly Cloudy | SCT090 BKN140 | 78.8 | 53.6 | 42% | 79 | 30.16 | 0.0 | ||||||
| 01 | 09:40 | Calm | 10.00 | Mostly Cloudy | SCT090 BKN140 BKN250 | 78.8 | 55.4 | 45% | 79 | 30.16 | 1008.9 | ||||||
| 01 | 08:40 | NW 6 | 10.00 | Mostly Cloudy | FEW090 BKN140 BKN200 | 77 | 55.4 | 47% | 79 | 30.15 | 0.0 | ||||||
| 01 | 06:40 | SW 5 | 10.00 | Mostly Cloudy | FEW100 SCT160 BKN200 | 77 | 53.6 | 44% | 78 | 30.12 | 1005.7 | ||||||
| Date | Time (cdt) | Wind (mph) | Vis. (mi.) | Weather | Sky Cond. | Air | Dwpt | Max. | Min. | Relative Humidity | Wind Chill (°F) | Heat Index (°F) | altimeter (in) | sea level (mb) | 1 hr | 3 hr | 6 hr |
| 6 hour | |||||||||||||||||
| Temperature (ºF) | Pressure | Precipitation (in) | |||||||||||||||